When you browse on this site, cookies collect data to enhance your experience and personalize the content and advertising you see.
Visit our Privacy Policy to learn more. By continuing to use the site, you agree to this use of cookies and data.
  • In Switzerland
  • List of Countries
  • For 7 days
  • Water Temperature
  • Satellite Maps
  • Weather Map
  • Weather Widgets
  • user-avatar
    Login

    Hourly Weather Nakhchivan

    Today, 26 June, Wednesday

    Time Temperature Precipitation Wind Pressure Humidity
    00:00 +31°C° 0.1 mm 2 mps 689 mmHg 34%
    01:00 +30°C° 0 mm 1 mps 689 mmHg 37%
    02:00 +29°C° 0 mm 1 mps 688 mmHg 40%
    03:00 +28°C° 0 mm 1 mps 688 mmHg 44%
    04:00 +28°C° 0 mm 1 mps 688 mmHg 44%
    05:00 +28°C° 0 mm 1 mps 689 mmHg 43%
    06:00 +28°C° 0 mm 1 mps 689 mmHg 43%
    07:00 +30°C° 0 mm 1 mps 689 mmHg 40%
    08:00 +31°C° 0 mm 2 mps 689 mmHg 36%
    09:00 +32°C° 0 mm 2 mps 689 mmHg 33%
    10:00 +34°C° 0 mm 2 mps 689 mmHg 30%
    11:00 +34°C° 0 mm 1 mps 689 mmHg 27%
    12:00 +36°C° 0 mm 1 mps 689 mmHg 24%
    13:00 +37°C° 0 mm 2 mps 689 mmHg 22%
    14:00 +38°C° 0 mm 2 mps 689 mmHg 21%
    15:00 +39°C° 0 mm 3 mps 688 mmHg 19%
    16:00 +38°C° 0 mm 4 mps 688 mmHg 20%
    17:00 +39°C° 0 mm 5 mps 688 mmHg 21%
    18:00 +37°C° 0 mm 5 mps 688 mmHg 22%
    19:00 +36°C° 0 mm 5 mps 688 mmHg 25%
    20:00 +34°C° 0 mm 4 mps 688 mmHg 29%
    21:00 +33°C° 0 mm 3 mps 688 mmHg 33%
    22:00 +31°C° 0 mm 3 mps 688 mmHg 35%
    23:00 +30°C° 0 mm 2 mps 688 mmHg 37%

    Tomorrow, 27 June, Thursday

    Time Temperature Precipitation Wind Pressure Humidity
    00:00 +30°C° 0 mm 2 mps 688 mmHg 39%
    01:00 +29°C° 0 mm 1 mps 687 mmHg 41%
    02:00 +28°C° 0 mm 1 mps 687 mmHg 43%
    03:00 +27°C° 0 mm 1 mps 687 mmHg 46%
    04:00 +27°C° 0 mm 1 mps 687 mmHg 45%
    05:00 +27°C° 0 mm 1 mps 687 mmHg 45%
    06:00 +27°C° 0 mm 2 mps 687 mmHg 44%
    07:00 +28°C° 0 mm 2 mps 687 mmHg 41%
    08:00 +29°C° 0 mm 2 mps 687 mmHg 38%
    09:00 +30°C° 0 mm 2 mps 687 mmHg 35%
    10:00 +31°C° 0 mm 2 mps 686 mmHg 32%
    11:00 +34°C° 0 mm 2 mps 686 mmHg 29%
    12:00 +35°C° 0 mm 2 mps 686 mmHg 25%
    13:00 +36°C° 0 mm 2 mps 686 mmHg 24%
    14:00 +37°C° 0 mm 2 mps 685 mmHg 23%
    15:00 +37°C° 0 mm 3 mps 685 mmHg 21%
    16:00 +37°C° 0.1 mm 3 mps 685 mmHg 23%
    17:00 +37°C° 0.1 mm 3 mps 685 mmHg 24%
    18:00 +36°C° 0.1 mm 3 mps 685 mmHg 26%
    19:00 +34°C° 0.2 mm 3 mps 685 mmHg 31%
    20:00 +31°C° 0.2 mm 3 mps 685 mmHg 36%
    21:00 +30°C° 0.2 mm 4 mps 685 mmHg 41%
    22:00 +29°C° 0.1 mm 3 mps 684 mmHg 43%
    23:00 +28°C° 0.1 mm 2 mps 684 mmHg 45%

    Day after tomorrow, 28 June, Friday

    Time Temperature Precipitation Wind Pressure Humidity
    00:00 +28°C° 0.1 mm 1 mps 684 mmHg 47%
    01:00 +27°C° 0.1 mm 1 mps 683 mmHg 50%
    02:00 +26°C° 0.1 mm 1 mps 683 mmHg 52%
    03:00 +26°C° 0.1 mm 1 mps 683 mmHg 55%
    04:00 +25°C° 0.1 mm 1 mps 683 mmHg 55%
    05:00 +25°C° 0.1 mm 1 mps 683 mmHg 55%
    06:00 +25°C° 0.1 mm 1 mps 682 mmHg 55%
    07:00 +26°C° 0 mm 1 mps 682 mmHg 50%
    08:00 +28°C° 0 mm 1 mps 682 mmHg 46%
    09:00 +29°C° 0 mm 1 mps 682 mmHg 41%
    10:00 +30°C° 0 mm 1 mps 682 mmHg 37%
    11:00 +32°C° 0 mm 1 mps 681 mmHg 34%
    12:00 +33°C° 0 mm 1 mps 681 mmHg 30%
    13:00 +34°C° 0 mm 1 mps 681 mmHg 28%
    14:00 +36°C° 0 mm 2 mps 680 mmHg 26%
    15:00 +37°C° 0 mm 3 mps 680 mmHg 24%
    16:00 +35°C° 0.3 mm 3 mps 680 mmHg 30%
    17:00 +33°C° 0.3 mm 3 mps 680 mmHg 36%
    18:00 +30°C° 0.3 mm 3 mps 680 mmHg 42%
    19:00 +28°C° 0.5 mm 5 mps 680 mmHg 49%
    20:00 +27°C° 0.5 mm 6 mps 680 mmHg 55%
    21:00 +24°C° 0.5 mm 7 mps 681 mmHg 61%
    22:00 +24°C° 0 mm 6 mps 681 mmHg 61%
    23:00 +25°C° 0 mm 4 mps 681 mmHg 60%

    29 June, Saturday

    Time Temperature Precipitation Wind Pressure Humidity
    00:00 +25°C° 0 mm 2 mps 680 mmHg 60%
    01:00 +25°C° 0 mm 2 mps 680 mmHg 62%
    02:00 +24°C° 0 mm 1 mps 680 mmHg 63%
    03:00 +24°C° 0 mm 1 mps 680 mmHg 65%
    04:00 +24°C° 0 mm 1 mps 680 mmHg 65%
    05:00 +24°C° 0 mm 1 mps 680 mmHg 65%
    06:00 +24°C° 0 mm 2 mps 680 mmHg 65%
    07:00 +25°C° 0 mm 2 mps 680 mmHg 60%
    08:00 +26°C° 0 mm 1 mps 680 mmHg 55%
    09:00 +27°C° 0 mm 1 mps 680 mmHg 50%
    10:00 +29°C° 0 mm 1 mps 680 mmHg 46%
    11:00 +30°C° 0 mm 1 mps 680 mmHg 41%
    12:00 +32°C° 0 mm 1 mps 680 mmHg 36%
    13:00 +33°C° 0 mm 1 mps 680 mmHg 31%
    14:00 +35°C° 0 mm 1 mps 680 mmHg 27%
    15:00 +36°C° 0 mm 1 mps 679 mmHg 22%
    16:00 +37°C° 0 mm 3 mps 680 mmHg 22%
    17:00 +37°C° 0 mm 5 mps 680 mmHg 23%
    18:00 +38°C° 0 mm 7 mps 680 mmHg 23%
    19:00 +34°C° 0 mm 7 mps 680 mmHg 33%
    20:00 +29°C° 0 mm 7 mps 680 mmHg 43%
    21:00 +26°C° 0 mm 7 mps 681 mmHg 53%
    22:00 +26°C° 0.2 mm 7 mps 681 mmHg 54%
    23:00 +24°C° 0.2 mm 6 mps 681 mmHg 55%

    30 June, Sunday

    Time Temperature Precipitation Wind Pressure Humidity
    00:00 +24°C° 0.2 mm 6 mps 681 mmHg 56%
    01:00 +25°C° 0 mm 5 mps 681 mmHg 58%
    02:00 +24°C° 0 mm 3 mps 681 mmHg 59%
    03:00 +24°C° 0 mm 2 mps 681 mmHg 61%
    04:00 +24°C° 0 mm 2 mps 681 mmHg 62%
    05:00 +24°C° 0 mm 2 mps 681 mmHg 63%
    06:00 +23°C° 0 mm 2 mps 681 mmHg 63%
    07:00 +25°C° 0 mm 2 mps 681 mmHg 59%
    08:00 +26°C° 0 mm 2 mps 681 mmHg 54%
    09:00 +27°C° 0 mm 2 mps 681 mmHg 50%
    10:00 +28°C° 0 mm 1 mps 681 mmHg 45%
    11:00 +30°C° 0 mm 1 mps 681 mmHg 41%
    12:00 +31°C° 0 mm 1 mps 681 mmHg 37%
    13:00 +33°C° 0 mm 1 mps 681 mmHg 32%
    14:00 +35°C° 0 mm 2 mps 681 mmHg 28%
    15:00 +36°C° 0 mm 2 mps 681 mmHg 23%
    16:00 +36°C° 0 mm 2 mps 681 mmHg 25%
    17:00 +35°C° 0 mm 2 mps 681 mmHg 26%
    18:00 +35°C° 0 mm 3 mps 681 mmHg 27%
    19:00 +33°C° 0.1 mm 3 mps 681 mmHg 33%
    20:00 +31°C° 0.1 mm 3 mps 681 mmHg 38%
    21:00 +29°C° 0.1 mm 3 mps 682 mmHg 43%
    22:00 +28°C° 0 mm 4 mps 682 mmHg 47%
    23:00 +26°C° 0 mm 4 mps 681 mmHg 51%

    1 July, Monday

    Time Temperature Precipitation Wind Pressure Humidity
    00:00 +25°C° 0 mm 5 mps 681 mmHg 55%
    01:00 +23°C° 0 mm 5 mps 681 mmHg 56%
    02:00 +22°C° 0 mm 5 mps 681 mmHg 56%
    03:00 +22°C° 0 mm 5 mps 681 mmHg 57%
    04:00 +21°C° 0 mm 4 mps 681 mmHg 57%
    05:00 +21°C° 0 mm 4 mps 682 mmHg 56%
    06:00 +21°C° 0 mm 4 mps 682 mmHg 55%
    07:00 +22°C° 0 mm 4 mps 682 mmHg 52%
    08:00 +23°C° 0 mm 4 mps 682 mmHg 49%
    09:00 +25°C° 0 mm 4 mps 682 mmHg 46%
    10:00 +26°C° 0 mm 4 mps 682 mmHg 44%
    11:00 +28°C° 0 mm 4 mps 682 mmHg 41%
    12:00 +29°C° 0 mm 3 mps 682 mmHg 38%
    13:00 +30°C° 0 mm 4 mps 682 mmHg 36%
    14:00 +30°C° 0 mm 5 mps 682 mmHg 33%
    15:00 +32°C° 0 mm 6 mps 681 mmHg 30%
    16:00 +32°C° 0 mm 7 mps 682 mmHg 30%
    17:00 +30°C° 0 mm 7 mps 682 mmHg 29%
    18:00 +31°C° 0 mm 8 mps 682 mmHg 29%
    19:00 +28°C° 0 mm 8 mps 683 mmHg 32%
    20:00 +27°C° 0 mm 8 mps 683 mmHg 35%
    21:00 +24°C° 0 mm 8 mps 684 mmHg 39%
    22:00 +24°C° 0 mm 8 mps 684 mmHg 40%
    23:00 +23°C° 0 mm 7 mps 684 mmHg 40%
    Show more